Satellite-Ground Cal/Val Region Overpasses Predictions

Prediction of Satellite NPP Overpassing Cal/Val Region: PacNW

Region Location: (Latitude: 10.00, Longitude: 139.50) to (Latitude: 22.70, Longitude: 165.60).

Table of predicted overpasses for the next 14.0 days since TLE Epoch: 3/27/2021
Interval Starting Time Starting Location Ending Time Ending Location
1 03/27/2021 02:32:41 ( 10.96, 161.28) 03/27/2021 02:36:00 ( 22.64, 158.50)
2 03/27/2021 15:04:18 ( 22.68, 158.74) 03/27/2021 15:07:54 ( 10.00, 155.72)
3 03/28/2021 02:14:12 ( 12.89, 165.60) 03/28/2021 02:16:59 ( 22.69, 163.24)
4 03/28/2021 03:54:53 ( 10.01, 140.89) 03/28/2021 03:56:34 ( 15.95, 139.51)
5 03/28/2021 14:45:16 ( 22.70, 163.50) 03/28/2021 14:48:52 ( 10.02, 160.48)
6 03/29/2021 03:35:51 ( 10.06, 145.63) 03/29/2021 03:39:26 ( 22.68, 142.63)
7 03/29/2021 14:29:23 ( 11.56, 165.60) 03/29/2021 14:29:49 ( 10.03, 165.25)
8 03/29/2021 16:07:44 ( 22.65, 142.87) 03/29/2021 16:11:19 ( 10.03, 139.87)
9 03/30/2021 03:16:49 ( 10.04, 150.40) 03/30/2021 03:20:24 ( 22.66, 147.39)
10 03/30/2021 15:48:42 ( 22.66, 147.63) 03/30/2021 15:52:17 ( 10.04, 144.63)
11 03/31/2021 02:57:46 ( 10.03, 155.16) 03/31/2021 03:01:21 ( 22.65, 152.16)
12 03/31/2021 15:29:39 ( 22.68, 152.40) 03/31/2021 15:33:14 ( 10.05, 149.39)
13 04/01/2021 02:38:44 ( 10.01, 159.92) 04/01/2021 02:42:20 ( 22.69, 156.91)
14 04/01/2021 15:10:37 ( 22.69, 157.16) 04/01/2021 15:14:13 ( 10.01, 154.14)
15 04/02/2021 02:19:41 ( 10.00, 164.69) 04/02/2021 02:23:17 ( 22.68, 161.67)
16 04/02/2021 14:51:35 ( 22.64, 161.91) 04/02/2021 14:55:10 ( 10.02, 158.91)
17 04/03/2021 03:42:10 ( 10.05, 144.06) 04/03/2021 03:45:45 ( 22.67, 141.05)
18 04/03/2021 14:33:48 ( 18.26, 165.59) 04/03/2021 14:36:08 ( 10.04, 163.67)
19 04/03/2021 16:14:03 ( 22.65, 141.30) 04/03/2021 16:16:09 ( 15.26, 139.50)
20 04/04/2021 03:23:07 ( 10.04, 148.82) 04/04/2021 03:26:42 ( 22.66, 145.82)
21 04/04/2021 15:55:00 ( 22.66, 146.06) 04/04/2021 15:58:35 ( 10.04, 143.05)
22 04/05/2021 03:04:05 ( 10.03, 153.58) 04/05/2021 03:07:40 ( 22.65, 150.58)
23 04/05/2021 15:35:58 ( 22.68, 150.82) 04/05/2021 15:39:33 ( 10.05, 147.82)
24 04/06/2021 02:45:03 ( 10.01, 158.35) 04/06/2021 02:48:39 ( 22.70, 155.33)
25 04/06/2021 15:16:55 ( 22.69, 155.58) 04/06/2021 15:20:31 ( 10.01, 152.57)
26 04/07/2021 02:26:00 ( 10.00, 163.11) 04/07/2021 02:29:36 ( 22.68, 160.09)
27 04/07/2021 14:57:54 ( 22.64, 160.33) 04/07/2021 15:01:29 ( 10.02, 157.33)
28 04/08/2021 02:09:43 ( 19.68, 165.59) 04/08/2021 02:10:34 ( 22.67, 164.85)
29 04/08/2021 03:48:29 ( 10.06, 142.48) 04/08/2021 03:52:02 ( 22.56, 139.51)
30 04/08/2021 14:38:51 ( 22.65, 165.09) 04/08/2021 14:42:26 ( 10.03, 162.09)
31 04/08/2021 16:20:21 ( 22.65, 139.72) 04/08/2021 16:20:35 ( 21.83, 139.51)
32 04/09/2021 03:29:26 ( 10.05, 147.24) 04/09/2021 03:33:01 ( 22.67, 144.24)
